Theta_e
361 363 364 361 357 356 354 356 358 360 358 359 358 355 355 356 354 357 361 358 360 356 354 357 356 352 352 354 352 354 356 357 357 358 358 358 356 357 357 357 358 360 360 357 357 356 357 355 355 354 355 352 350 349 348 348 350 353 355 354 353 357 355 355 350 347 351 352 353 358 362 362 359 360 358 360 359 356 354 356 355 349 349 348 347
361 364 364 360 357 355 355 354 358 358 357 357 358 357 356 358 359 363 361 361 358 356 356 356 356 356 354 353 354 354 355 359 358 356 355 356 357 353 353 357 359 361 361 360 361 359 356 357 358 356 356 354 352 349 348 346 346 347 351 351 353 353 354 350 349 346 345 350 348 361 358 361 358 361 358 357 359 357 354 354 354 351 349 349 347
364 365 362 361 358 354 355 355 357 356 356 356 354 358 352 358 364 359 361 362 359 357 356 356 358 356 356 354 354 354 356 357 358 357 355 356 356 355 355 354 356 356 357 359 359 361 360 359 357 359 356 354 353 353 350 347 346 346 348 349 351 351 351 352 350 349 346 347 351 351 359 361 358 360 360 358 359 356 353 351 351 351 350 349 349
364 363 361 357 356 354 355 355 355 357 356 356 356 360 357 357 360 360 359 360 356 357 356 355 355 357 358 356 355 356 355 355 356 357 356 356 355 357 357 356 356 358 358 358 359 360 362 360 359 358 359 357 355 355 354 351 349 349 348 350 351 351 352 352 353 354 352 347 351 350 359 361 361 362 362 358 357 355 353 353 352 349 348 348 348
363 363 362 359 356 355 354 356 356 357 357 356 356 356 355 357 359 359 359 358 358 356 355 356 356 357 354 355 356 356 355 355 356 355 355 356 357 355 356 357 357 357 357 359 359 360 359 359 358 359 358 355 357 355 354 353 351 350 348 350 350 351 353 355 355 354 355 351 351 354 360 362 362 360 360 355 355 354 355 352 351 349 348 347 348
363 362 361 359 357 356 355 356 355 355 358 363 358 355 355 356 355 357 360 360 359 357 355 355 354 355 355 355 356 356 357 356 356 357 356 356 356 356 356 356 355 356 356 355 356 358 357 358 357 357 358 356 357 357 358 357 354 352 352 352 352 353 355 359 359 358 360 356 354 352 360 358 358 359 359 357 353 349 351 351 351 350 348 346 346
362 361 360 358 356 355 356 356 356 358 360 361 360 358 357 357 356 356 358 359 358 357 356 356 356 354 354 353 355 356 356 356 357 358 357 356 356 356 355 354 355 354 355 354 355 357 359 357 358 360 361 361 359 358 358 359 358 357 356 356 356 357 355 355 358 360 359 356 354 354 355 358 359 355 358 359 355 351 346 345 343 345 345 345 343
361 359 356 355 356 356 356 357 359 359 358 358 359 358 358 356 356 359 359 358 356 356 355 356 356 358 355 354 356 357 357 357 359 358 357 356 354 354 355 355 354 354 356 355 355 357 358 359 361 362 362 363 363 363 362 359 360 358 357 353 356 357 358 356 356 358 359 357 353 352 353 355 358 359 358 355 351 351 348 344 340 339 340 344 343
358 357 355 355 356 356 359 358 360 361 361 360 358 357 355 355 356 357 358 358 357 357 356 355 355 354 355 355 355 354 355 355 357 357 357 356 356 354 354 354 353 354 355 356 357 357 358 358 359 360 362 364 365 365 365 365 362 359 361 362 361 359 358 359 358 358 357 357 355 356 354 355 358 355 350 347 345 344 347 345 343 343 341 339 340
356 356 356 355 357 360 358 357 359 360 358 356 357 358 357 356 356 357 358 359 358 358 358 357 356 354 354 355 355 354 356 356 358 358 357 356 356 353 353 354 356 356 355 355 355 357 358 359 359 359 363 365 364 361 358 356 355 358 359 361 363 362 360 359 358 354 350 354 355 354 351 350 353 355 350 349 349 350 348 344 341 343 342 338 338
356 355 357 357 357 358 357 357 358 356 356 356 358 357 356 356 357 357 358 358 357 358 357 356 355 356 355 353 353 352 350 351 354 346 347 353 357 355 354 354 356 355 356 353 356 357 356 355 359 359 362 361 362 356 356 355 354 352 351 351 355 359 357 355 355 353 351 355 350 352 351 350 351 355 352 349 350 348 348 347 344 344 338 332 330
356 356 354 357 359 358 357 357 361 361 361 359 358 358 357 357 357 357 357 356 356 357 356 356 355 355 355 354 354 352 353 358 339 342 344 344 350 354 352 352 353 355 357 357 355 355 356 354 359 361 360 360 362 362 358 355 351 351 351 350 349 348 349 355 356 353 353 348 351 349 349 351 350 355 353 353 352 350 348 348 346 342 339 334 335
356 357 357 359 359 360 361 360 359 357 355 352 353 358 355 355 356 356 355 354 355 355 356 356 354 353 353 353 352 353 354 353 344 341 341 340 341 350 352 354 355 355 356 359 361 360 357 356 354 357 358 356 358 359 359 359 359 354 350 350 350 349 343 342 346 355 355 355 349 349 348 351 351 351 357 356 358 353 349 346 346 344 342 337 339
357 357 358 359 359 356 352 348 349 347 349 351 354 355 354 356 357 357 356 356 354 354 354 355 354 354 354 354 354 354 355 355 341 339 337 337 337 345 354 356 356 357 359 359 358 358 358 355 355 355 357 358 358 358 358 358 357 356 359 362 361 359 352 346 344 345 350 356 356 352 355 355 351 355 362 362 355 353 350 347 348 345 342 340 344
358 359 358 358 358 356 351 347 347 346 346 348 351 354 355 355 356 357 357 356 355 355 355 354 354 355 354 354 354 353 353 345 337 335 333 332 333 342 354 354 355 357 358 358 357 356 358 357 356 355 356 355 356 359 357 357 358 357 356 355 358 359 360 361 362 362 361 360 359 358 358 359 362 360 359 363 355 355 355 354 352 351 350 348 346
357 357 356 354 355 356 351 350 349 350 349 350 352 353 353 354 355 356 355 356 356 356 356 355 355 355 355 356 356 356 357 339 334 334 331 330 334 349 353 353 353 355 356 357 357 359 359 357 352 357 353 356 354 354 355 358 357 355 353 353 355 357 357 357 348 352 363 365 365 363 362 361 351 364 365 363 359 357 357 359 354 349 346 341 338
352 355 351 352 352 355 354 352 352 353 353 353 353 353 353 355 356 356 354 355 355 355 356 355 356 356 356 356 356 355 356 341 330 331 329 329 337 351 354 354 354 355 356 358 358 358 359 359 359 356 356 357 343 328 336 350 353 352 352 352 353 355 354 357 346 337 337 336 337 339 338 336 335 333 331 332 345 351 360 357 346 345 338 335 337
352 352 353 354 353 354 356 356 355 354 354 353 353 354 356 356 356 356 354 354 354 354 354 354 356 356 355 355 355 355 355 345 326 326 326 327 340 352 354 353 354 356 357 356 356 357 359 354 355 356 354 357 326 324 327 345 350 351 352 353 352 353 353 356 357 355 336 332 333 334 334 335 335 334 334 331 330 337 347 346 348 344 339 336 335
356 356 356 357 357 357 356 356 356 355 354 353 354 354 354 354 355 356 355 355 354 355 353 353 353 354 354 355 351 352 353 348 324 325 322 322 336 350 350 351 351 352 353 353 355 355 355 354 353 349 345 332 317 319 321 336 346 348 350 349 348 350 352 356 355 354 356 359 359 356 352 346 353 355 354 343 337 337 348 347 348 342 338 339 338
356 356 356 357 356 355 355 355 355 354 354 353 354 354 354 354 353 353 353 352 352 352 352 354 354 353 354 353 353 354 354 356 348 320 322 321 324 345 350 350 349 350 351 350 350 352 352 353 346 327 322 319 317 315 316 316 333 341 342 343 343 346 351 349 351 351 351 351 351 353 354 355 356 355 353 352 352 349 349 348 346 344 340 337 337
355 354 355 354 353 353 355 355 355 356 356 354 354 354 354 354 353 353 351 352 351 351 351 351 351 350 351 350 350 350 351 352 352 320 320 321 322 331 348 349 350 349 348 347 347 346 347 349 349 330 320 318 315 311 310 312 318 331 338 339 342 337 333 340 343 344 346 346 347 348 349 351 352 352 351 351 349 349 350 346 346 345 341 338 338
356 355 355 355 354 355 355 355 355 354 355 354 353 352 353 354 353 352 351 350 350 348 348 346 347 347 350 350 352 351 349 346 351 328 321 318 319 323 343 350 348 349 346 346 345 344 345 346 345 332 318 317 313 309 307 309 314 327 335 322 316 319 334 337 339 340 341 343 343 343 344 347 347 349 349 350 352 350 351 352 346 345 344 344 342
358 356 355 354 354 354 354 354 354 353 352 353 352 351 352 351 351 350 348 348 347 347 347 349 349 348 347 349 350 350 350 349 346 348 321 315 315 320 321 334 327 345 344 342 342 341 342 344 340 330 316 309 306 307 308 309 317 329 312 312 315 316 324 336 338 338 339 340 340 341 341 343 343 345 347 349 351 354 356 355 352 348 346 345 347
357 355 355 353 353 352 353 351 350 351 351 351 351 349 348 349 350 350 350 349 347 347 346 347 347 345 345 345 348 347 347 348 342 337 331 316 314 313 316 317 320 336 341 341 342 341 339 340 333 313 308 304 304 307 310 315 325 314 312 315 317 322 332 337 337 337 337 337 337 337 339 341 342 343 344 345 343 344 344 347 349 347 347 347 346
353 353 352 351 351 349 349 349 348 349 349 348 348 347 348 349 347 349 349 347 346 345 344 344 344 344 344 345 346 346 347 348 346 336 329 326 319 317 318 318 319 317 336 339 340 340 325 313 310 310 310 309 309 311 315 321 317 315 317 319 328 334 337 337 336 336 335 335 336 337 338 339 339 340 339 337 339 340 341 342 344 346 347 346 346
354 353 352 351 348 348 347 346 347 349 349 348 348 347 347 346 345 346 344 344 344 344 342 341 341 343 343 344 343 344 345 346 345 343 338 336 331 320 319 322 331 331 333 333 331 325 319 315 312 313 316 320 331 335 334 333 327 327 327 331 335 335 334 334 333 333 332 332 333 333 334 334 334 335 336 337 337 337 338 339 339 340 342 342 343
354 352 351 349 349 349 348 345 345 345 347 346 345 346 347 347 346 346 346 343 343 342 343 343 341 339 340 342 343 344 345 344 343 346 344 340 341 339 339 338 333 332 334 338 334 334 333 329 330 323 321 322 324 327 327 330 333 334 333 333 333 332 332 332 331 331 331 330 329 329 330 332 333 333 333 332 332 333 335 333 333 334 336 338 336
350 349 346 347 348 347 347 343 345 344 345 346 343 343 344 345 344 346 345 345 344 343 343 342 340 340 338 340 341 341 341 342 342 342 339 339 338 338 339 337 338 336 334 335 334 334 334 332 330 333 335 335 333 334 333 333 332 332 333 332 331 331 330 329 329 332 332 330 329 330 329 331 328 329 330 330 330 331 332 331 330 330 331 331 330
350 346 346 346 347 348 345 346 344 344 345 348 345 346 345 344 344 346 346 344 342 340 341 340 340 341 340 339 338 339 340 340 339 315 328 311 324 330 334 335 335 334 327 316 328 332 334 333 334 334 334 331 331 333 332 333 333 334 334 334 332 331 330 329 328 328 328 327 326 326 327 328 328 329 328 328 330 329 332 329 330 329 331 331 326
350 347 347 346 346 345 344 344 346 345 344 343 345 342 323 315 326 342 342 325 312 307 310 334 332 338 339 341 342 336 336 329 307 301 299 300 299 300 302 299 300 316 317 310 321 330 333 333 335 334 335 334 333 333 333 333 334 334 335 330 332 331 329 329 329 328 328 328 328 327 327 327 326 326 326 326 327 327 329 326 328 328 326 324 321
350 349 349 349 346 346 345 345 347 349 348 344 345 345 344 329 302 304 314 323 311 301 299 302 306 313 329 338 328 312 312 304 298 296 296 296 295 295 295 296 297 298 301 320 328 331 334 333 333 334 333 333 332 332 333 333 331 331 331 332 331 329 328 329 328 327 328 329 329 329 327 327 326 326 325 325 325 326 327 328 328 327 324 322 319
350 349 349 348 350 350 348 349 348 347 347 347 348 344 343 344 345 305 300 312 306 298 299 298 298 303 306 312 330 329 309 300 298 298 296 295 295 295 294 294 295 294 298 302 323 333 334 333 332 332 331 330 330 331 330 331 331 331 330 329 329 329 329 329 327 328 329 328 328 328 327 326 326 327 326 326 325 326 326 326 325 324 322 321 320
352 351 351 349 348 348 346 347 347 346 345 345 345 345 344 342 341 343 330 301 301 300 297 296 296 296 297 298 295 299 300 299 298 296 295 295 294 295 295 294 294 295 299 315 329 332 333 332 331 332 331 329 329 329 329 330 330 330 329 329 328 329 330 330 328 328 328 327 327 327 327 327 326 326 326 326 326 325 325 324 324 323 321 319 318
352 349 348 347 347 346 345 345 345 344 344 344 344 343 343 341 342 341 341 341 330 310 297 294 295 295 295 294 298 298 298 297 296 295 294 295 295 295 294 307 299 296 305 325 330 331 331 330 330 330 330 330 330 329 329 330 329 330 330 329 330 330 331 332 330 328 327 327 327 327 327 328 327 326 326 326 326 325 324 323 324 323 321 320 318
349 347 343 345 348 347 345 344 344 344 343 344 343 342 341 342 342 341 341 340 340 340 342 329 304 295 312 303 296 294 295 295 295 295 294 295 295 295 295 320 325 323 318 326 332 331 330 330 330 330 330 331 330 329 329 330 329 328 328 330 329 329 330 329 328 328 327 328 328 327 326 327 328 326 327 326 325 324 323 323 323 323 321 320 319
346 345 345 344 346 345 344 345 344 343 343 343 344 342 342 342 341 342 340 342 341 341 340 343 338 313 300 301 297 294 293 293 295 294 295 295 295 296 321 332 332 331 331 331 332 331 331 331 330 331 331 331 332 330 330 329 329 328 329 328 328 329 329 328 328 328 328 328 327 327 325 327 327 326 327 326 325 324 323 323 323 323 322 320 320
344 344 343 343 344 343 343 343 343 344 341 340 340 342 343 343 343 342 341 341 341 341 341 343 343 328 312 318 307 296 294 295 294 295 295 295 294 307 325 331 332 332 331 330 331 331 330 331 332 332 332 331 331 331 330 330 330 331 330 330 330 329 329 329 328 327 328 328 328 327 327 327 326 327 325 325 325 324 324 324 323 321 322 321 320
343 341 342 343 343 342 342 342 341 339 341 341 342 342 341 343 341 339 339 338 339 338 338 339 341 339 338 335 321 321 310 299 296 296 295 296 308 321 331 333 333 331 331 331 332 332 332 332 332 332 332 332 333 333 332 331 330 329 331 331 331 330 326 326 325 327 329 327 327 327 326 326 325 326 324 324 323 323 324 323 324 323 321 320 321
341 333 331 334 337 340 340 339 339 338 339 338 340 341 340 339 339 338 341 339 338 338 336 337 336 334 335 340 339 334 326 329 331 336 333 332 334 336 336 334 333 332 332 331 332 331 332 331 332 333 333 333 333 333 333 332 333 332 332 330 329 329 329 329 329 330 328 327 327 327 327 326 326 326 325 324 324 324 324 323 323 323 322 320 321
339 339 336 333 338 339 339 340 339 338 339 339 340 341 340 339 338 338 336 337 338 336 335 335 333 335 339 339 335 337 336 335 334 336 336 337 338 338 337 337 335 334 333 333 332 332 332 333 333 333 333 333 333 333 334 334 334 332 332 332 329 327 328 328 327 328 327 327 326 327 326 326 327 326 326 324 323 324 324 322 322 323 323 323 322
338 338 337 335 336 339 339 337 337 336 338 337 338 338 337 337 337 336 335 334 335 334 336 338 336 333 330 320 305 312 334 335 335 334 334 335 334 335 336 337 336 336 335 334 335 335 334 334 334 333 333 333 333 333 334 333 333 332 331 331 330 329 328 327 328 328 329 328 327 327 327 327 325 325 324 324 322 319 320 320 322 322 322 321 323
338 337 338 337 338 338 337 336 336 336 337 337 336 335 335 336 336 336 334 335 334 334 334 332 334 335 321 308 305 298 328 335 332 333 334 333 333 333 333 334 334 335 335 335 335 335 334 335 334 335 334 334 333 335 336 336 335 333 331 331 330 330 329 327 327 328 328 327 327 327 327 326 324 323 322 323 320 322 321 320 320 321 321 321 321
337 336 336 336 335 334 335 335 336 336 336 335 334 334 333 333 334 334 334 333 333 333 333 332 331 331 329 317 319 312 331 331 330 329 330 330 331 332 333 332 333 334 334 336 335 334 333 333 333 333 334 335 336 334 334 335 335 336 334 330 329 329 329 328 327 326 327 326 325 326 326 325 323 323 322 322 322 321 321 321 319 319 319 320 321
335 335 335 335 335 334 334 335 334 334 334 332 333 332 332 334 333 333 332 331 330 329 328 328 328 328 329 326 324 326 328 328 328 328 328 328 328 328 329 331 332 332 332 331 330 332 332 333 333 334 334 332 331 332 333 332 334 333 332 330 329 327 328 329 328 328 327 325 325 325 325 326 324 323 322 322 322 322 321 320 320 319 319 319 319
334 333 331 331 332 332 332 332 331 332 331 331 331 330 329 328 328 327 327 327 326 326 325 325 325 324 324 325 325 325 325 324 323 323 324 324 324 324 325 326 326 325 322 321 323 324 324 323 323 324 325 325 324 323 322 322 321 318 317 317 316 316 316 317 319 323 327 327 325 325 323 323 324 323 322 322 322 322 320 320 319 320 316 317 318
331 330 330 330 330 330 330 330 330 330 329 328 328 327 327 327 327 326 325 325 325 324 324 324 323 322 321 321 322 321 322 323 322 321 320 320 320 321 322 323 323 322 320 317 316 316 316 316 316 316 317 318 317 316 315 316 315 315 315 313 310 308 308 307 311 319 325 328 328 326 325 323 324 323 322 322 322 322 322 321 321 319 318 316 316
330 329 328 328 328 327 327 328 328 327 327 326 327 326 325 325 326 325 324 323 323 323 322 322 322 321 321 321 321 320 320 321 321 321 322 321 321 320 320 319 319 319 318 317 317 317 315 312 311 311 310 311 311 311 310 309 309 311 311 310 307 304 302 300 303 309 315 316 318 323 325 324 323 325 322 322 321 321 321 320 320 320 319 316 316
329 327 326 326 326 326 325 326 325 324 323 323 323 323 323 323 323 322 322 322 322 321 320 320 320 320 320 320 320 320 320 319 320 320 320 320 320 320 319 318 317 317 317 316 316 314 313 312 311 310 309 309 308 308 306 305 305 306 305 304 302 297 294 292 300 304 303 302 310 316 321 323 323 323 323 324 323 321 321 320 320 319 319 318 315
326 325 325 324 324 324 324 324 323 323 322 323 321 321 321 321 321 321 320 320 319 319 319 318 318 318 318 317 317 317 318 317 318 319 319 319 319 319 318 318 318 317 316 314 313 313 313 312 311 310 310 309 308 307 306 305 304 303 302 301 297 293 292 291 294 299 293 300 309 314 318 321 323 323 323 325 323 322 321 322 321 320 319 318 317
324 323 323 322 322 322 322 322 321 321 321 321 320 320 319 319 318 318 318 318 318 317 317 317 317 317 316 316 315 315 315 315 315 316 316 316 316 317 316 316 316 316 316 314 314 313 313 313 312 311 309 309 308 308 307 306 305 303 301 299 294 292 291 291 292 291 294 302 305 309 313 316 319 321 323 324 324 324 322 321 321 320 320 319 318
321 321 321 321 320 320 320 321 320 319 319 319 319 319 317 317 317 317 316 316 316 315 315 315 315 314 314 314 313 313 313 313 314 314 314 314 314 315 315 315 314 315 315 315 314 314 313 313 312 311 311 309 309 309 309 309 308 304 298 296 293 290 288 288 294 290 288 291 307 313 315 316 317 318 320 321 321 321 321 323 322 321 320 319 318
Wind_Speed
11 10 9 9 10 9 8 8 9 7 8 8 8 9 9 8 8 1 5 3 3 6 10 10 10 11 10 10 11 10 9 9 9 9 9 10 10 10 10 9 9 9 8 9 9 9 8 9 9 9 9 9 9 9 9 9 9 9 7 8 8 7 7 7 9 9 8 7 6 6 5 7 7 8 8 8 8 9 9 9 8 9 9 9 10
12 11 10 9 9 8 7 7 8 8 8 9 9 5 6 6 6 2 4 2 2 2 4 6 9 11 12 12 11 11 10 10 10 9 10 10 11 10 11 11 10 9 8 9 8 8 8 9 9 10 10 10 10 11 10 10 10 10 9 9 8 8 7 7 8 9 9 7 7 7 7 8 7 9 8 10 9 9 9 10 9 9 10 9 10
10 8 7 7 8 7 6 7 7 8 8 7 9 10 8 7 4 5 5 5 5 5 6 8 9 12 11 12 12 11 11 11 10 10 9 10 11 11 10 10 11 11 11 10 10 9 9 9 10 9 9 10 10 10 11 11 11 11 11 10 10 8 8 8 8 9 10 9 8 8 8 7 8 7 8 8 9 10 10 12 10 9 9 11 10
9 9 8 8 9 8 7 7 7 7 7 2 3 4 8 7 6 8 7 8 9 9 10 10 9 7 12 12 12 11 11 11 10 10 11 11 11 10 11 10 10 10 10 10 10 9 9 9 10 10 10 10 10 9 9 10 10 10 11 10 10 10 8 9 9 9 9 10 8 9 7 7 7 6 7 7 9 10 10 9 10 11 11 11 11
9 9 9 10 10 9 9 8 7 6 7 8 10 12 8 6 6 9 9 9 9 8 9 10 10 8 10 13 12 12 12 12 11 11 11 10 11 11 11 11 11 11 11 10 10 10 10 10 10 10 10 11 10 10 10 11 10 10 11 10 9 9 8 9 9 9 9 10 9 8 8 7 6 7 7 8 8 7 8 10 10 11 11 10 8
8 8 8 9 9 9 9 7 7 8 8 7 9 7 7 8 9 8 9 9 8 8 9 10 10 10 12 13 14 13 12 12 12 12 12 11 11 11 11 11 11 11 12 12 11 11 11 10 10 10 10 10 10 10 10 11 10 11 11 10 9 8 9 8 8 9 9 10 9 9 8 8 8 7 8 8 8 9 9 9 8 9 9 7 9
8 8 8 8 8 10 9 8 7 5 5 5 6 5 7 10 11 10 9 8 7 8 8 10 10 11 11 12 14 12 13 13 12 12 12 11 11 11 11 12 12 11 12 12 12 11 11 11 10 10 10 9 10 10 10 10 10 11 11 10 9 10 10 10 9 10 10 10 10 10 9 8 8 8 7 7 8 8 11 10 11 10 10 10 10
9 9 9 10 10 9 9 9 8 6 6 7 7 7 6 7 7 7 7 8 9 10 11 11 11 10 11 12 11 12 11 12 12 12 12 12 12 12 11 12 12 12 12 12 11 11 10 10 9 9 10 10 10 10 10 10 9 10 9 11 10 10 9 10 10 10 11 11 11 10 10 9 9 8 6 7 7 7 9 11 11 10 11 9 11
11 10 10 9 9 7 6 7 8 8 7 8 7 7 7 6 6 6 7 7 8 9 10 11 11 12 11 10 8 8 9 13 12 11 12 13 12 12 12 12 12 12 12 11 11 10 10 10 11 11 11 12 12 10 9 7 7 9 9 9 9 9 9 8 7 9 9 12 10 10 10 9 9 8 9 10 13 14 11 11 10 10 9 10 11
10 10 9 9 8 7 8 7 8 8 5 7 8 7 7 7 7 7 7 7 7 6 8 9 10 11 11 10 10 8 7 7 10 11 11 11 12 11 11 11 11 11 11 11 11 11 11 11 11 14 12 11 11 12 13 14 13 12 10 9 9 8 9 9 7 8 10 14 11 11 12 12 11 11 11 12 11 10 10 11 12 10 9 9 9
9 10 9 9 8 7 7 6 6 8 7 7 6 6 6 6 7 7 7 7 7 7 7 8 9 8 9 10 9 9 9 7 4 6 8 8 10 11 10 10 10 10 10 11 11 10 11 12 12 11 11 12 12 14 14 14 15 16 17 17 15 11 10 11 11 8 13 10 10 13 12 13 13 11 12 12 12 12 12 12 11 8 11 11 10
7 8 7 6 6 6 7 7 6 6 5 5 5 5 5 7 6 6 6 6 7 7 8 8 7 7 8 9 9 9 9 2 5 6 5 5 6 9 11 11 10 9 10 10 10 9 11 12 8 7 9 10 9 8 11 15 17 17 17 17 17 18 17 13 11 10 9 9 10 8 13 11 13 12 12 12 12 13 13 12 11 11 13 12 12
6 6 7 6 5 5 5 5 4 1 1 4 6 5 6 6 6 6 7 7 7 8 8 8 8 8 9 9 10 11 11 10 5 3 3 3 3 6 8 9 9 9 9 9 8 7 8 5 7 6 5 11 10 9 11 10 12 16 18 18 18 18 17 18 18 16 13 10 8 11 10 10 11 14 13 12 12 13 13 13 12 12 13 13 13
4 5 5 5 5 4 2 1 2 5 5 5 5 8 6 6 6 6 6 6 7 8 8 8 8 8 8 9 9 9 10 10 11 10 9 8 7 6 7 8 8 9 9 9 9 9 10 10 8 7 8 9 9 8 8 8 10 12 12 11 11 14 17 19 20 21 18 15 14 13 11 11 12 13 12 8 7 12 12 14 15 15 14 16 13
4 4 3 3 2 4 6 6 5 4 5 5 5 5 6 5 5 5 5 6 7 7 6 7 7 8 9 9 8 8 8 10 11 11 11 10 9 7 8 8 8 9 9 9 10 11 11 11 10 9 9 10 10 9 10 9 9 9 11 13 13 13 12 11 11 11 12 13 16 17 17 16 14 14 14 6 9 13 14 14 13 12 12 12 8
3 3 3 3 2 3 5 7 7 6 6 6 6 6 5 5 5 5 5 5 5 5 6 7 7 8 8 7 7 7 5 4 9 9 8 9 7 6 8 8 8 9 10 10 10 8 7 7 10 9 10 8 11 10 5 6 10 12 14 15 14 13 13 12 11 12 13 12 13 15 14 16 16 14 12 8 6 13 12 8 5 3 8 9 12
3 3 5 5 4 4 4 6 7 7 7 7 6 6 6 6 6 5 6 6 6 6 6 6 6 7 7 7 6 6 5 5 6 5 5 5 4 7 9 9 9 9 9 10 9 9 9 8 8 9 7 8 6 8 6 5 11 13 13 14 13 13 13 11 12 15 16 16 17 17 16 15 15 15 14 11 11 12 9 7 7 9 7 9 10
5 4 5 6 6 5 4 4 5 6 6 6 6 6 5 5 5 5 5 5 5 5 4 4 5 6 6 7 6 5 6 5 7 6 6 6 7 8 7 6 8 8 9 8 8 8 9 9 8 9 10 5 9 6 7 6 9 12 13 14 15 15 14 12 10 8 9 15 17 16 16 17 17 17 16 12 4 6 12 16 6 8 10 13 12
5 5 5 5 4 4 3 4 4 5 6 5 5 4 4 3 3 3 3 3 3 3 4 4 4 4 4 5 3 6 6 4 9 8 7 8 5 6 5 7 8 8 8 8 8 7 7 8 4 6 5 6 7 6 6 6 8 9 12 13 14 15 13 12 11 11 9 8 7 8 11 13 12 11 12 17 13 13 11 14 5 7 7 12 13
4 3 3 3 3 3 3 4 4 4 4 4 3 3 3 4 4 4 3 3 3 3 4 4 5 4 4 5 5 5 5 4 5 7 6 6 6 5 6 7 8 7 7 7 8 8 7 5 5 7 6 6 7 8 8 6 5 8 8 9 11 13 9 9 8 8 9 10 12 12 13 13 11 9 10 10 10 10 9 9 8 9 14 15 14
5 5 5 6 6 6 5 5 4 4 4 5 4 4 4 4 4 4 4 3 3 3 3 2 2 1 2 3 3 3 3 3 6 8 6 5 4 5 6 7 7 7 7 7 8 8 7 5 3 8 4 6 7 8 9 8 8 7 8 8 8 8 9 8 9 11 11 12 12 12 12 12 11 10 10 10 9 9 8 10 10 12 14 13 13
8 8 8 7 7 7 6 5 5 4 4 4 4 3 2 2 3 2 2 2 3 3 4 3 3 2 2 1 2 3 2 0 1 5 3 2 1 4 5 5 6 6 6 7 7 7 6 4 4 6 7 8 10 10 12 12 11 7 8 8 10 10 9 9 8 7 8 10 11 10 11 11 11 10 11 10 8 9 9 8 8 11 14 14 13
10 9 9 8 8 7 6 6 5 4 3 3 4 5 3 3 3 3 3 4 4 4 4 3 3 3 3 2 2 1 2 3 3 2 7 5 5 4 2 6 5 4 6 7 7 8 7 5 5 8 6 6 7 9 11 12 11 7 7 8 9 10 9 7 9 9 10 10 10 11 9 9 9 10 9 9 9 8 7 7 10 12 12 13 13
8 9 8 8 7 7 6 5 5 5 5 4 4 4 5 4 4 4 4 4 4 4 3 3 2 2 2 2 0 1 1 1 8 7 4 6 6 6 7 7 7 5 6 7 8 8 8 6 6 11 10 9 9 10 11 10 8 10 10 10 10 10 7 9 9 9 10 10 10 10 9 8 9 10 8 7 7 8 8 8 7 9 11 10 11
7 7 7 7 6 6 5 5 5 5 6 6 5 6 6 5 4 4 4 3 3 2 2 2 1 0 2 1 1 0 1 1 3 5 5 5 3 3 4 4 5 4 5 8 8 5 6 8 9 8 8 10 11 12 12 12 10 8 9 10 12 7 7 7 7 7 9 9 9 9 9 8 7 7 8 8 9 9 8 7 7 6 7 10 11
6 6 6 5 6 7 7 6 5 4 4 4 4 3 4 5 4 3 3 3 2 2 2 1 1 1 1 2 2 2 1 1 3 3 3 4 4 6 4 5 6 6 7 8 10 10 10 8 8 10 11 10 8 6 6 5 6 11 12 10 6 6 6 6 6 7 7 7 7 7 8 8 8 9 9 9 9 9 8 9 9 9 9 8 7
6 5 5 6 5 3 3 3 4 5 3 3 4 3 2 2 2 2 2 2 2 2 2 2 3 2 0 1 2 1 1 2 2 3 2 2 3 4 6 5 9 9 8 6 6 6 7 7 5 6 9 10 9 8 9 8 7 6 4 4 4 5 5 5 6 7 7 7 7 7 7 7 8 7 7 7 8 8 7 7 7 8 7 7 8
5 5 5 5 4 4 5 4 3 2 3 3 3 2 0 1 1 1 1 2 2 1 1 2 3 4 3 2 2 4 3 3 2 2 1 2 2 3 3 3 4 4 6 5 5 6 6 6 7 8 6 7 6 5 4 4 5 5 5 4 5 5 5 6 6 5 5 6 6 6 6 6 6 6 7 7 7 7 6 7 7 8 7 7 6
4 5 4 4 5 2 2 2 3 3 2 4 3 3 4 5 5 3 5 5 5 5 4 3 1 1 2 3 4 5 5 2 4 6 4 4 3 4 4 4 4 3 4 6 6 6 6 6 6 5 5 5 5 5 4 4 5 5 5 4 5 3 4 5 6 6 6 6 6 7 7 6 6 6 6 6 5 6 5 7 6 7 6 5 5
5 4 4 3 4 2 2 2 4 1 2 2 4 6 3 2 3 4 3 5 5 6 5 3 5 5 5 3 4 5 4 3 4 6 3 2 2 4 6 7 7 6 7 9 7 6 6 5 5 5 4 5 5 4 4 4 4 4 5 3 5 2 4 4 3 5 5 5 5 6 6 6 6 6 6 6 6 6 5 5 6 5 5 4 2
3 3 2 3 5 4 3 3 2 2 2 2 3 3 2 5 3 2 4 4 3 2 2 2 2 4 4 3 5 8 8 7 6 4 1 1 4 5 6 6 7 7 7 6 7 7 6 5 4 4 4 5 4 4 4 4 4 4 4 5 5 4 4 5 5 6 6 5 4 4 5 5 6 6 6 6 6 5 5 4 4 4 4 2 2
3 3 3 3 3 3 4 3 3 2 1 1 2 2 3 1 4 4 4 3 6 3 1 1 1 2 2 3 3 4 6 7 4 1 1 3 5 5 5 6 7 7 6 4 6 6 4 4 3 3 3 4 3 4 4 5 4 4 5 6 6 6 5 5 6 7 7 6 6 6 6 5 5 6 6 6 6 5 5 4 5 4 3 3 2
3 3 3 3 3 3 4 4 3 3 3 3 2 2 3 3 3 2 4 3 2 2 3 4 4 5 4 4 3 2 2 1 3 2 3 4 4 5 5 6 7 7 3 5 7 5 3 3 3 2 3 4 4 4 4 5 5 5 6 6 6 6 4 5 5 6 6 5 6 6 5 5 5 6 5 6 6 6 5 5 4 4 3 3 3
3 4 4 4 3 3 3 3 3 3 3 4 4 4 4 3 3 4 3 3 3 3 5 5 5 4 5 5 4 4 4 3 2 3 3 4 4 5 4 5 9 10 6 6 7 4 4 3 4 4 5 5 5 4 4 5 5 5 6 5 5 5 2 3 5 4 5 5 5 5 4 5 4 5 5 5 5 5 4 4 4 4 3 2 2
2 6 5 3 3 3 3 3 3 3 3 4 4 4 4 3 4 4 4 5 5 4 1 3 4 8 5 4 6 5 4 4 4 5 5 5 5 5 5 6 6 6 6 8 6 6 6 5 6 5 5 5 5 5 6 5 5 5 6 5 5 5 4 4 4 3 4 5 4 3 4 5 5 5 5 5 5 5 4 4 4 3 3 2 2
2 2 1 1 1 2 2 3 4 4 4 4 4 5 4 5 5 4 4 4 4 4 5 1 5 8 12 6 6 7 5 4 5 5 6 6 6 2 4 6 5 3 4 4 4 4 4 4 4 4 4 5 5 5 5 5 5 5 5 5 6 5 5 5 4 3 3 4 3 2 4 5 4 6 4 1 4 4 4 4 3 3 2 1 1
2 2 2 2 2 2 2 3 4 4 4 4 4 4 5 4 4 4 4 4 3 4 3 4 1 5 3 4 6 4 5 5 6 6 7 6 5 5 6 6 6 4 3 4 3 3 4 4 4 4 4 4 5 5 5 5 4 5 4 4 4 5 5 4 4 4 5 5 4 3 4 4 5 5 6 5 2 2 2 2 2 3 3 2 2
3 2 1 1 0 1 1 2 2 1 4 3 3 4 4 4 4 5 5 5 4 5 7 4 3 6 2 6 11 7 5 5 3 3 3 4 4 6 6 4 4 5 5 4 3 4 4 4 4 5 5 5 5 5 5 5 5 5 4 3 4 4 2 3 6 6 4 5 5 4 4 4 2 4 3 4 4 4 1 2 2 1 1 1 2
5 6 4 6 2 1 1 1 1 3 2 3 3 3 3 4 4 4 2 3 5 5 5 7 5 9 9 5 1 6 7 5 5 4 5 6 5 4 4 5 5 5 5 5 5 5 5 6 6 5 5 5 5 5 5 6 5 4 4 4 4 3 4 6 4 5 4 6 5 4 4 4 5 4 4 5 4 3 4 3 2 2 2 2 2
4 3 3 8 1 1 0 0 1 2 2 2 2 2 3 3 5 4 5 5 5 5 4 8 9 6 5 6 7 6 6 6 7 6 6 7 7 4 3 4 4 5 6 6 6 6 6 6 7 7 7 6 7 6 5 5 5 5 5 5 5 4 4 4 4 5 6 5 5 4 4 4 4 3 3 4 4 3 3 3 3 4 3 3 3
4 4 3 3 5 1 1 1 1 3 3 3 3 2 3 4 3 5 5 4 4 5 3 4 6 7 5 5 5 6 4 5 5 6 6 6 7 8 6 5 5 6 7 6 6 6 7 7 7 8 8 8 7 7 7 7 7 6 5 6 5 5 4 4 4 4 4 4 4 5 4 4 3 3 4 2 0 3 4 4 3 3 3 4 3
3 4 3 3 0 2 3 3 3 3 4 4 4 4 4 4 5 5 5 5 5 5 5 7 6 6 9 11 9 8 5 5 5 6 6 6 6 5 7 7 8 8 8 7 7 6 6 6 7 7 8 8 8 7 7 7 6 7 7 6 6 6 6 5 3 3 4 4 4 4 4 4 3 3 3 3 5 4 4 4 3 3 3 3 3
5 4 4 4 4 4 4 4 4 4 5 5 5 6 6 5 4 4 4 5 6 7 7 7 7 7 7 8 8 6 2 6 5 6 6 6 6 6 6 7 6 5 6 6 7 7 7 7 7 7 7 8 9 9 10 9 7 7 8 9 8 7 7 7 5 4 4 4 4 4 4 5 4 5 4 4 4 4 4 3 4 4 4 4 3
5 5 5 5 5 5 5 5 5 5 5 6 6 7 7 7 7 7 7 7 7 7 7 7 7 7 7 7 7 7 7 7 7 6 6 6 7 7 8 8 8 9 8 8 9 9 8 8 8 8 9 9 9 8 8 9 9 9 9 9 8 9 8 8 8 7 5 4 4 4 5 5 5 5 5 5 5 5 5 5 4 5 5 4 4
6 6 5 5 5 5 6 6 6 5 5 5 6 6 6 6 6 6 6 6 6 6 6 6 7 7 6 6 7 7 7 6 6 6 6 7 7 7 7 7 7 8 8 7 8 8 8 8 8 9 9 9 10 9 9 9 9 9 9 9 9 9 9 9 10 12 9 6 6 5 5 5 5 5 5 5 5 5 6 5 5 5 5 6 5
6 6 6 6 6 6 6 6 6 6 6 6 6 6 6 6 6 6 6 6 6 6 6 6 6 6 6 6 6 7 7 6 6 6 7 7 7 7 7 7 7 7 7 8 8 8 8 8 8 9 9 9 9 9 9 9 9 9 9 8 8 7 7 8 9 10 11 10 9 9 7 7 6 6 5 5 5 5 5 5 5 5 5 6 6
6 5 5 5 5 6 6 6 7 7 7 7 6 6 5 5 5 5 6 6 5 6 6 6 6 6 6 6 6 6 6 6 6 6 7 7 7 7 8 8 7 7 7 8 8 8 9 9 9 8 8 8 8 9 9 9 9 9 9 9 9 10 10 10 9 10 10 11 12 11 10 10 8 7 6 6 7 6 6 6 6 6 6 6 6
5 5 6 6 5 5 6 6 7 7 7 6 6 6 5 5 5 5 6 5 5 5 5 5 5 5 5 5 5 5 5 6 6 6 6 6 6 7 7 8 8 7 7 8 8 8 8 8 9 8 8 9 9 8 8 8 8 8 8 8 8 10 12 14 9 8 8 9 8 8 9 9 10 10 9 8 8 7 7 7 6 6 6 6 6
6 6 6 5 6 7 7 7 6 6 6 5 4 5 5 5 5 5 5 5 6 6 5 5 5 5 5 6 6 6 7 6 6 6 6 6 6 6 6 7 7 7 7 7 7 7 7 7 8 8 8 8 8 8 8 8 7 7 7 7 11 17 16 16 11 9 12 8 7 7 7 7 6 7 9 10 9 8 8 9 8 8 7 7 7
6 6 6 6 7 6 6 6 6 6 5 5 5 5 5 5 5 5 5 5 5 5 5 5 5 5 5 5 6 6 6 6 6 6 6 6 6 6 6 6 6 6 6 6 6 6 6 6 7 8 8 7 7 7 7 7 7 7 6 8 14 16 17 16 11 10 10 8 8 6 7 7 6 6 7 7 8 8 10 10 9 8 8 9 9
7 6 6 6 6 5 4 4 5 5 4 4 4 4 4 4 4 5 6 6 6 6 5 5 5 5 5 5 5 5 6 6 5 5 5 6 6 6 6 6 6 6 5 6 6 6 6 6 6 6 6 7 6 6 6 6 7 9 11 10 13 16 16 15 11 14 14 10 6 6 6 6 7 7 6 6 6 7 7 8 8 9 9 9 9
Wind_Direction
181 183 182 188 187 193 197 199 212 210 216 215 230 231 222 217 234 256 52 327 6 297 249 233 230 243 238 229 226 225 223 227 223 224 219 223 227 236 239 233 226 232 235 244 249 248 247 256 260 259 262 262 261 260 254 253 251 248 248 250 248 243 241 244 258 271 274 271 278 262 212 207 206 214 211 210 203 188 210 214 160 175 195 209 192
185 185 187 189 190 191 203 209 210 211 214 213 216 197 348 299 222 158 207 175 227 260 278 274 256 235 237 233 234 229 221 219 226 223 224 220 223 223 226 228 232 235 244 245 239 247 254 250 250 253 248 250 256 258 256 253 248 247 244 243 242 243 241 247 258 265 270 266 262 258 248 202 234 196 214 210 215 193 194 213 198 184 215 211 206
179 180 180 179 183 187 197 208 213 217 214 212 227 142 208 222 195 204 202 218 200 224 254 253 246 256 241 235 232 233 229 223 220 226 227 225 225 232 237 228 225 229 230 234 240 240 245 248 247 246 250 250 248 248 252 252 251 251 249 247 249 247 239 239 245 252 260 264 262 261 245 218 232 208 213 219 214 199 205 213 206 204 211 216 215
171 176 176 183 185 191 193 205 207 213 209 171 6 69 179 200 206 210 210 213 215 215 223 233 241 239 258 242 235 234 233 229 226 223 223 227 227 226 232 237 235 230 232 236 236 235 238 244 247 250 250 253 256 259 255 254 254 254 256 254 253 256 259 250 234 243 255 265 259 263 251 225 221 220 206 210 215 204 211 209 212 210 212 214 219
174 172 171 170 180 188 191 194 199 199 202 145 176 196 187 183 208 212 205 209 212 217 218 227 229 222 229 239 235 231 231 232 230 231 229 224 227 230 229 229 231 234 237 238 242 245 249 249 250 252 253 254 249 250 252 252 251 255 253 249 250 248 246 246 247 240 247 253 258 254 249 232 225 231 214 216 199 195 201 215 211 212 212 213 211
172 164 170 173 181 190 196 197 198 196 198 171 179 186 166 186 204 210 208 206 209 215 224 224 224 222 226 232 235 227 227 230 230 232 233 231 228 228 231 230 233 235 236 237 238 238 243 248 253 255 257 256 257 256 257 259 261 257 256 262 260 256 248 245 245 243 244 249 254 256 239 233 229 227 221 216 207 204 208 216 213 215 206 201 207
167 165 172 186 190 197 202 202 207 169 195 195 197 186 178 187 195 203 208 212 211 218 223 232 232 230 232 235 238 235 227 226 228 226 231 236 236 230 232 233 235 238 241 240 241 241 241 244 245 247 251 256 257 258 259 256 250 261 271 265 258 257 254 249 243 238 237 246 249 249 251 237 222 222 205 201 213 211 212 209 212 213 216 213 204
170 173 189 199 200 199 205 203 195 187 194 205 206 201 201 210 212 214 214 219 223 225 229 233 236 239 238 235 232 237 239 231 225 227 226 229 234 234 232 238 240 239 242 244 243 244 244 245 245 248 247 245 246 249 252 256 256 250 248 259 261 258 258 256 252 246 240 244 249 250 245 242 222 224 205 198 206 215 215 212 211 204 212 214 210
187 183 192 198 202 200 208 197 201 198 198 206 200 190 197 215 222 225 225 225 229 233 235 237 242 243 244 246 248 250 246 242 234 225 224 226 232 235 237 236 239 244 244 245 245 246 248 247 246 247 245 243 248 255 262 275 263 257 249 249 256 254 252 265 272 281 272 256 250 245 245 234 213 205 201 202 208 215 211 217 222 214 205 205 211
188 182 182 193 190 189 194 202 199 194 182 207 218 213 211 213 217 220 224 226 229 232 234 237 240 240 239 243 243 244 250 259 257 249 241 237 228 236 238 241 244 246 247 248 251 251 248 252 258 256 244 238 234 237 244 250 254 258 267 264 253 258 260 243 246 247 261 254 245 253 247 245 234 210 212 211 217 219 215 212 220 217 199 204 207
195 180 183 184 187 184 190 198 199 203 207 218 217 222 223 212 215 216 219 223 229 231 232 234 236 240 243 243 241 242 239 235 326 298 247 259 257 242 240 243 244 248 252 255 257 263 271 269 260 254 247 237 237 235 241 244 243 244 246 249 256 251 250 262 252 245 253 261 264 252 256 259 254 233 217 220 215 217 220 215 221 211 200 193 204
193 190 178 190 181 189 200 203 199 204 214 229 229 231 219 214 211 213 215 219 224 225 226 224 227 230 232 238 243 247 251 64 58 39 356 330 300 274 263 257 250 247 249 250 254 258 265 263 276 290 283 287 274 265 259 244 241 243 242 243 245 248 252 252 261 255 258 260 272 284 278 278 270 248 232 221 216 213 215 215 210 214 204 204 210
178 184 181 184 188 192 198 211 191 170 204 230 244 213 214 215 214 214 215 216 217 218 216 216 217 220 225 228 234 236 240 254 254 213 181 195 218 260 260 266 272 266 263 261 257 252 258 283 276 262 254 269 274 261 259 272 261 238 236 241 243 243 241 239 240 248 256 250 239 250 242 250 269 271 247 237 216 213 209 212 210 211 209 212 222
172 177 181 183 179 151 99 66 205 196 228 231 217 221 214 213 213 211 214 210 214 219 217 218 222 222 225 225 228 232 235 227 218 220 217 218 220 224 247 256 259 264 264 266 270 272 269 266 264 258 260 263 258 259 271 264 265 272 264 255 251 238 230 232 237 238 239 248 249 244 240 237 242 249 260 254 243 223 208 213 213 210 209 218 222
163 155 161 152 150 155 168 141 222 205 225 222 223 228 218 215 213 211 213 213 213 217 221 222 225 228 227 231 231 236 236 203 201 210 218 221 221 220 242 240 247 250 254 256 259 257 259 261 257 264 274 270 272 266 259 252 256 259 260 263 259 257 251 241 230 227 230 233 240 245 245 240 234 238 244 226 234 238 221 220 209 202 203 218 222
146 150 98 80 133 157 156 163 178 186 197 219 226 220 216 213 209 199 213 217 216 218 222 227 226 230 233 238 241 241 259 169 199 208 223 233 219 235 242 244 249 253 253 255 255 262 261 254 262 254 251 255 264 273 272 278 275 272 268 265 265 266 264 258 251 244 242 242 243 250 252 248 248 242 235 228 240 257 249 226 60 116 190 200 221
81 106 124 155 182 195 184 165 186 175 184 189 198 197 203 200 203 202 207 211 213 215 224 224 228 235 238 237 241 249 257 161 181 196 227 240 226 246 244 243 243 247 254 255 258 258 259 257 256 267 273 268 41 24 359 314 268 268 267 268 267 265 264 264 239 236 241 243 245 247 254 270 276 273 260 237 242 263 257 212 187 163 168 212 225
145 146 161 161 180 200 192 184 173 174 175 185 188 193 198 201 199 196 213 208 220 223 229 235 237 244 244 249 245 251 252 175 174 176 188 182 233 247 253 265 265 260 259 263 264 267 269 274 273 272 273 292 33 17 6 310 264 263 267 265 264 262 263 263 266 256 230 240 244 245 250 257 264 272 276 270 261 260 256 252 207 179 195 208 216
154 162 166 169 187 174 178 172 163 169 177 174 181 178 189 201 192 207 220 223 219 223 222 227 226 237 250 268 283 269 265 203 167 182 191 192 223 252 253 256 259 261 266 268 269 272 277 276 334 39 26 22 8 8 350 334 289 284 279 278 275 274 272 277 278 279 278 278 265 266 268 257 254 258 267 271 238 214 220 247 216 185 207 219 222
143 142 140 139 141 138 141 158 164 168 155 139 149 160 154 162 165 190 182 204 207 210 221 219 215 207 202 225 208 230 250 276 148 172 206 230 245 254 257 247 255 267 281 288 289 282 283 279 117 82 57 20 355 343 334 327 295 286 289 279 280 277 305 326 323 314 298 289 286 283 277 277 275 265 267 268 264 239 219 210 209 189 213 228 227
130 137 143 143 143 144 145 147 145 136 132 140 140 144 158 160 168 167 173 187 183 209 215 234 249 252 258 251 264 266 276 293 157 182 171 219 234 240 266 272 279 284 281 285 282 288 282 287 292 103 58 22 345 334 321 316 305 288 280 270 272 318 336 298 299 301 290 284 284 285 283 281 275 266 265 268 268 266 245 215 201 196 212 219 220
127 128 132 133 133 134 133 138 134 124 123 143 144 137 132 168 165 153 156 188 184 189 170 186 203 183 235 253 283 281 133 190 288 124 112 110 354 240 253 287 354 302 312 299 298 289 305 324 325 65 32 6 344 332 317 308 304 286 271 293 321 319 299 292 289 284 273 281 282 281 282 279 282 282 276 268 259 254 253 243 219 200 210 220 219
132 133 132 133 133 132 135 138 135 134 149 158 153 142 164 163 155 162 168 168 173 170 182 193 208 224 236 248 263 261 278 163 34 91 96 93 90 159 341 334 23 316 293 292 296 294 292 307 305 50 11 353 324 309 300 295 288 280 327 320 305 301 286 269 276 275 274 274 276 280 283 283 280 276 270 271 266 258 250 232 231 221 218 228 235
129 126 125 125 127 122 128 138 137 142 149 154 143 151 155 158 171 179 183 187 187 194 197 205 229 256 278 291 286 290 37 291 78 66 60 56 51 44 32 21 12 330 334 294 295 298 290 308 356 353 337 321 298 288 285 276 273 302 309 302 291 276 262 271 272 275 280 282 278 277 274 277 282 286 299 323 335 336 325 318 302 275 256 244 236
124 124 120 120 126 126 124 114 120 125 135 139 141 146 154 170 165 171 186 193 197 215 225 206 237 249 326 340 4 288 78 126 76 89 99 101 76 57 22 359 329 316 292 280 276 309 5 340 321 307 298 294 282 276 268 258 251 259 275 280 276 269 276 290 294 295 290 290 289 291 294 302 320 332 333 319 310 305 300 295 288 284 264 253 250
110 116 121 123 131 133 138 126 117 123 137 139 153 165 163 188 169 178 207 204 216 229 245 256 265 297 40 351 350 351 330 192 151 147 164 182 186 179 198 213 253 249 265 283 298 300 295 285 275 268 264 258 269 279 298 311 297 285 268 266 300 313 314 310 309 302 301 305 311 312 311 314 309 310 307 300 295 293 296 291 290 287 281 273 263
109 105 107 109 103 93 88 92 136 147 135 169 151 168 152 237 174 213 244 244 212 220 232 231 262 244 194 345 321 308 283 285 249 171 199 290 300 184 201 204 210 227 248 247 233 243 233 228 277 301 298 303 284 276 271 284 271 268 284 314 319 319 322 323 319 314 311 309 307 307 308 307 308 302 303 311 306 303 309 311 304 293 294 294 285
91 94 105 112 105 123 118 145 254 91 72 354 358 6 127 250 281 120 5 345 322 284 270 313 324 324 313 295 300 294 282 245 248 303 320 304 301 303 293 292 296 301 294 292 296 295 297 273 235 234 242 246 244 250 262 292 293 287 296 314 326 322 319 312 303 308 317 318 311 308 309 311 313 317 313 312 316 318 314 309 308 305 304 311 296
69 77 79 87 103 103 96 111 49 49 122 139 97 23 356 350 354 355 46 9 354 337 331 294 259 303 306 303 298 300 290 332 73 47 41 33 323 324 318 325 334 298 58 30 313 286 263 258 267 261 258 259 272 273 263 260 265 248 231 288 317 303 321 330 329 328 327 327 324 323 321 325 322 324 323 319 329 330 345 334 322 318 316 307 329
82 61 43 37 44 52 40 79 94 359 325 43 128 131 84 10 356 331 64 75 51 31 7 358 11 350 316 322 38 331 342 60 82 72 62 344 320 287 296 313 320 300 323 317 283 275 260 267 270 266 270 274 279 280 275 283 297 309 315 174 206 298 328 298 303 319 316 301 310 316 325 325 325 330 329 332 333 334 357 339 338 339 333 359 49
68 78 69 53 34 350 353 22 44 76 355 344 348 327 171 160 196 169 3 96 93 124 91 88 25 359 329 308 88 76 93 103 83 75 25 280 275 266 268 275 260 254 272 287 249 236 254 261 267 265 274 277 282 303 308 292 311 315 314 315 308 332 326 318 337 318 302 291 301 308 323 326 327 331 328 333 332 329 351 4 11 358 15 30 101
47 30 25 43 55 14 358 20 355 5 353 355 303 309 308 285 149 179 200 177 150 168 210 207 174 213 254 298 310 142 137 136 142 173 272 268 263 265 264 242 239 247 261 278 273 270 266 266 268 281 302 298 316 311 310 320 313 304 311 313 318 329 333 328 333 310 312 323 325 328 330 325 330 331 330 334 332 342 349 11 10 15 21 41 69
18 22 26 25 14 23 353 9 354 352 338 322 298 303 301 316 306 165 173 158 146 180 229 229 216 213 233 233 244 303 343 63 163 232 266 283 285 283 270 248 248 250 289 263 251 277 277 267 276 314 323 315 317 327 334 322 325 315 317 319 310 319 347 4 300 296 316 328 315 324 327 330 341 331 342 340 346 349 351 3 17 25 31 60 77
27 17 4 358 354 347 347 340 332 328 326 313 310 303 300 294 299 310 292 186 179 203 212 223 233 252 243 244 250 244 236 245 282 287 278 285 290 279 257 253 226 226 220 271 285 277 274 289 280 285 292 293 303 316 301 314 317 313 304 305 307 312 318 263 259 310 320 320 317 326 330 334 343 333 346 345 351 353 2 359 11 18 30 45 87
69 103 83 354 331 345 331 333 315 309 301 297 288 283 286 288 289 282 290 304 314 305 217 174 208 218 238 224 229 232 248 256 269 282 287 289 280 276 275 253 228 219 210 227 244 263 282 289 300 314 308 314 315 313 317 318 312 315 311 309 304 301 305 299 304 323 316 310 312 331 336 318 328 326 335 360 354 353 4 2 11 19 30 43 95
77 13 43 188 348 339 334 320 314 307 310 305 305 297 295 295 293 298 296 307 302 303 308 189 165 205 214 233 171 191 216 238 247 259 275 272 267 254 237 240 260 213 225 237 279 287 278 275 283 286 298 303 314 312 309 310 310 312 323 317 299 304 300 291 302 320 302 291 301 324 306 303 324 315 313 41 357 12 6 4 2 11 33 85 107
59 52 57 34 355 329 331 312 305 347 341 313 303 294 293 297 295 287 285 285 293 300 301 292 164 124 168 204 163 174 190 210 219 231 226 226 224 229 258 284 306 299 271 256 257 267 264 273 274 288 293 301 302 307 305 303 302 294 285 260 305 289 275 292 318 296 281 284 302 304 303 311 319 318 327 332 345 350 353 20 37 14 353 78 141
67 43 71 49 80 61 317 298 336 32 259 267 277 285 291 284 286 286 294 295 295 290 289 308 290 290 215 144 177 179 171 198 200 243 231 207 202 223 241 274 287 286 291 289 262 262 261 258 266 275 293 295 302 305 307 298 300 306 293 273 250 251 64 289 218 232 241 272 277 284 283 282 277 300 304 294 325 319 298 280 301 91 103 241 245
92 75 21 334 351 343 92 292 285 285 297 283 295 299 295 282 267 281 250 265 281 302 316 289 333 34 0 353 239 139 162 204 220 235 199 199 207 240 285 297 302 302 298 295 298 289 280 279 275 274 275 283 291 290 293 305 317 298 290 285 280 266 207 256 226 209 258 273 280 281 282 301 304 309 313 309 304 298 300 312 268 231 235 229 245
80 109 51 303 227 121 283 185 299 288 307 318 346 319 290 304 346 344 294 314 312 295 308 14 10 33 14 3 357 337 328 333 333 331 333 324 317 301 287 286 297 306 309 305 299 293 285 281 283 285 283 278 278 283 282 284 283 285 277 270 277 276 274 253 276 281 276 278 282 296 302 298 289 276 281 279 298 314 297 268 273 287 271 250 187
87 85 93 58 339 308 118 345 22 5 351 355 350 19 4 346 327 310 324 324 316 321 2 93 82 58 40 36 26 11 338 348 351 341 339 345 337 321 314 305 310 321 317 312 317 316 311 308 303 297 293 287 285 287 294 298 298 293 290 289 283 282 284 284 276 273 264 263 255 256 257 255 258 265 273 279 20 276 272 284 276 242 251 275 280
81 86 72 78 66 22 39 25 30 39 21 12 15 13 21 23 7 9 2 341 360 347 2 29 51 65 55 37 26 351 355 25 4 350 356 352 347 338 341 347 352 338 325 320 319 316 318 317 314 309 305 306 308 306 298 292 298 308 300 291 296 295 292 292 281 271 279 275 264 255 260 260 281 292 284 295 274 264 268 262 259 265 262 228 226
60 61 61 55 43 34 24 25 22 28 31 27 25 18 15 11 16 12 20 22 11 11 18 26 25 25 42 28 352 312 332 29 18 24 19 13 4 346 348 358 359 335 332 335 335 338 331 327 324 318 314 320 330 331 322 312 323 316 307 311 304 299 295 293 288 272 256 257 266 265 261 258 236 237 241 231 240 256 258 250 252 258 242 245 210
66 62 60 51 53 53 39 30 36 39 44 48 43 38 25 25 29 27 30 28 23 23 26 28 26 24 20 24 14 22 29 23 27 21 19 16 16 6 2 5 2 3 1 4 5 357 345 335 333 341 360 13 16 15 1 354 354 343 340 331 326 322 311 305 302 297 292 290 281 267 250 248 255 257 249 245 257 258 249 238 241 241 246 231 226
62 59 57 55 51 53 56 54 51 55 54 50 57 51 49 50 45 49 44 42 40 41 40 37 33 26 23 22 25 25 29 29 21 18 13 13 9 9 5 10 11 21 19 17 15 13 12 6 6 5 7 9 13 14 9 6 8 10 7 6 5 2 0 354 345 329 313 286 280 268 263 263 245 238 249 243 240 244 251 245 235 230 233 242 226
57 57 54 54 56 52 54 54 54 52 51 57 58 62 60 57 59 48 42 41 38 33 39 38 37 35 31 28 27 27 27 28 27 24 21 16 14 9 9 12 18 25 24 18 13 17 19 18 16 17 15 14 14 13 11 8 8 9 7 10 9 2 349 343 331 325 326 310 289 282 276 264 259 261 256 263 247 236 248 252 244 233 228 231 232
57 51 51 53 55 58 48 45 40 33 40 41 45 52 47 47 38 43 51 43 31 34 34 31 32 33 32 33 31 30 26 25 28 26 27 25 22 19 14 11 12 17 23 26 25 28 32 31 29 23 22 15 13 14 11 10 12 9 9 7 7 357 355 343 333 331 333 337 333 320 305 289 273 263 241 236 260 256 248 249 250 241 238 240 231
58 50 46 34 38 43 49 55 57 52 51 52 51 48 38 32 36 34 24 27 36 37 33 31 27 25 22 21 18 18 21 17 17 17 16 17 21 19 17 15 14 17 20 25 26 28 29 30 27 26 26 25 25 23 20 13 13 7 2 2 4 355 342 342 334 333 334 322 303 298 306 310 301 291 279 263 254 262 256 251 247 243 239 232 238
40 46 50 42 40 42 42 48 49 44 47 55 53 45 37 38 37 39 45 41 38 32 29 21 20 18 20 16 9 6 7 3 4 3 4 0 5 10 6 9 8 13 18 23 24 24 26 27 29 29 24 24 27 25 24 22 15 6 2 3 352 348 346 346 334 327 314 300 299 303 301 299 304 303 305 297 274 255 253 254 253 253 244 240 232
47 47 52 51 54 57 60 56 48 47 48 47 46 46 42 39 36 23 15 12 10 8 4 3 359 2 359 5 0 357 353 351 351 348 353 357 358 357 360 2 8 1 9 13 17 22 21 19 22 26 27 22 22 22 22 21 12 358 360 354 349 349 348 340 325 324 327 324 314 307 303 299 302 299 299 306 312 294 271 261 258 251 249 246 244
56 56 57 56 57 55 48 49 54 50 33 23 21 23 16 10 0 7 6 2 360 2 1 356 359 359 358 3 2 358 360 352 354 349 355 358 357 355 359 3 12 2 8 14 13 15 20 19 19 13 29 26 15 14 8 12 12 359 332 332 350 346 345 345 340 333 326 320 317 322 317 304 293 292 303 309 309 307 313 310 282 260 250 247 245